Time,TemperatureF,DewpointF,PressureIn,WindDirection,WindDirectionDegrees,WindSpeedMPH,WindSpeedGustMPH,Humidity,HourlyPrecipIn,Conditions,Clouds,dailyrainin,SoftwareType,DateUTC
2013-05-18 00:03:00,50.5,39.9,29.83,WNW,292,6.0,13.0,67,0.00,,,0.00,meteohub,2013-05-17 23:03:00,
2013-05-18 00:08:00,50.4,39.7,29.83,NNW,337,5.0,11.0,67,0.00,,,0.00,meteohub,2013-05-17 23:08:00,
2013-05-18 00:13:00,50.4,39.7,29.83,North,0,8.0,10.0,67,0.00,,,0.00,meteohub,2013-05-17 23:13:00,
2013-05-18 00:18:00,50.4,40.3,29.83,North,0,6.0,12.0,68,0.00,,,0.00,meteohub,2013-05-17 23:18:00,
2013-05-18 00:23:00,50.4,40.3,29.83,North,0,7.0,12.0,68,0.00,,,0.00,meteohub,2013-05-17 23:23:00,
2013-05-18 00:29:00,50.4,40.3,29.83,NNW,337,10.0,12.0,68,0.00,,,0.00,meteohub,2013-05-17 23:29:00,
2013-05-18 00:34:00,50.4,40.3,29.83,NNW,337,12.0,15.0,68,0.00,,,0.00,meteohub,2013-05-17 23:34:00,
2013-05-18 00:39:00,50.4,40.6,29.83,NNW,337,6.0,15.0,69,0.00,,,0.00,meteohub,2013-05-17 23:39:00,
2013-05-18 00:44:00,50.4,40.6,29.83,NW,315,10.0,15.0,69,0.00,,,0.00,meteohub,2013-05-17 23:44:00,
2013-05-18 00:49:00,50.4,40.6,29.81,North,0,8.0,13.0,69,0.00,,,0.00,meteohub,2013-05-17 23:49:00,
2013-05-18 00:54:00,50.4,40.6,29.81,North,0,9.0,13.0,69,0.00,,,0.00,meteohub,2013-05-17 23:54:00,
2013-05-18 00:59:00,50.2,40.5,29.81,North,0,6.0,13.0,69,0.00,,,0.00,meteohub,2013-05-17 23:59:00,
2013-05-18 01:04:00,50.4,40.6,29.81,NNW,337,13.0,13.0,69,0.00,,,0.00,meteohub,2013-05-18 00:04:00,
2013-05-18 01:09:00,50.4,40.6,29.81,NNW,337,7.0,13.0,69,0.00,,,0.00,meteohub,2013-05-18 00:09:00,
2013-05-18 01:14:00,50.2,40.8,29.81,North,0,5.0,13.0,70,0.00,,,0.00,meteohub,2013-05-18 00:14:00,
2013-05-18 01:19:00,50.2,40.8,29.81,North,0,6.0,13.0,70,0.00,,,0.00,meteohub,2013-05-18 00:19:00,
2013-05-18 01:25:00,50.2,41.2,29.81,North,0,8.0,12.0,71,0.00,,,0.00,meteohub,2013-05-18 00:25:00,
2013-05-18 01:30:00,50.2,41.2,29.81,North,0,6.0,13.0,71,0.00,,,0.00,meteohub,2013-05-18 00:30:00,
2013-05-18 01:35:00,50.2,40.8,29.81,North,0,8.0,13.0,70,0.00,,,0.00,meteohub,2013-05-18 00:35:00,
2013-05-18 01:40:00,50.2,40.8,29.81,NNW,337,4.0,13.0,70,0.00,,,0.00,meteohub,2013-05-18 00:40:00,
2013-05-18 01:45:00,50.2,40.8,29.81,North,0,8.0,10.0,70,0.00,,,0.00,meteohub,2013-05-18 00:45:00,
2013-05-18 01:50:00,50.2,40.8,29.81,NNW,337,8.0,10.0,70,0.00,,,0.00,meteohub,2013-05-18 00:50:00,
2013-05-18 01:55:00,50.2,40.8,29.81,NNW,337,6.0,10.0,70,0.00,,,0.00,meteohub,2013-05-18 00:55:00,
2013-05-18 02:00:00,50.2,40.8,29.81,NW,315,10.0,11.0,70,0.00,,,0.00,meteohub,2013-05-18 01:00:00,
2013-05-18 02:05:00,50.2,40.8,29.81,NNW,337,5.0,11.0,70,0.00,,,0.00,meteohub,2013-05-18 01:05:00,
2013-05-18 02:10:00,50.2,40.8,29.81,NNW,337,8.0,11.0,70,0.00,,,0.00,meteohub,2013-05-18 01:10:00,
2013-05-18 02:15:00,50.2,40.8,29.81,NNW,337,4.0,11.0,70,0.00,,,0.00,meteohub,2013-05-18 01:15:00,
2013-05-18 02:21:00,50.2,40.8,29.81,NW,315,6.0,9.0,70,0.00,,,0.00,meteohub,2013-05-18 01:21:00,
2013-05-18 02:26:00,50.2,40.8,29.81,NW,315,5.0,8.0,70,0.00,,,0.00,meteohub,2013-05-18 01:26:00,
2013-05-18 02:31:00,50.2,40.8,29.81,NNW,337,4.0,8.0,70,0.00,,,0.00,meteohub,2013-05-18 01:31:00,
2013-05-18 02:36:00,50.2,40.8,29.81,NNE,22,3.0,8.0,70,0.00,,,0.00,meteohub,2013-05-18 01:36:00,
2013-05-18 02:41:00,50.2,40.8,29.81,NW,315,5.0,6.0,70,0.00,,,0.00,meteohub,2013-05-18 01:41:00,
2013-05-18 02:46:00,50.2,40.8,29.81,North,0,5.0,8.0,70,0.00,,,0.00,meteohub,2013-05-18 01:46:00,
2013-05-18 02:51:00,50.4,41.0,29.81,North,0,8.0,8.0,70,0.00,,,0.00,meteohub,2013-05-18 01:51:00,
2013-05-18 02:56:00,50.4,41.0,29.81,NNW,337,7.0,9.0,70,0.00,,,0.00,meteohub,2013-05-18 01:56:00,
2013-05-18 03:01:00,50.4,41.0,29.81,NNW,337,4.0,9.0,70,0.00,,,0.00,meteohub,2013-05-18 02:01:00,
2013-05-18 03:06:00,50.4,41.0,29.81,NNW,337,3.0,9.0,70,0.00,,,0.00,meteohub,2013-05-18 02:06:00,
2013-05-18 03:12:00,50.4,41.0,29.81,North,0,4.0,8.0,70,0.00,,,0.00,meteohub,2013-05-18 02:12:00,
2013-05-18 03:17:00,50.4,41.0,29.81,NNW,337,7.0,8.0,70,0.00,,,0.00,meteohub,2013-05-18 02:17:00,
2013-05-18 03:22:00,50.4,41.0,29.78,North,0,6.0,10.0,70,0.00,,,0.00,meteohub,2013-05-18 02:22:00,
2013-05-18 03:27:00,50.4,41.0,29.78,NNW,337,3.0,10.0,70,0.00,,,0.00,meteohub,2013-05-18 02:27:00,
2013-05-18 03:32:00,50.4,41.0,29.78,NW,315,4.0,10.0,70,0.00,,,0.00,meteohub,2013-05-18 02:32:00,
2013-05-18 03:37:00,50.4,41.0,29.81,NW,315,3.0,8.0,70,0.00,,,0.00,meteohub,2013-05-18 02:37:00,
2013-05-18 03:42:00,50.5,41.2,29.81,NNW,337,4.0,8.0,70,0.00,,,0.00,meteohub,2013-05-18 02:42:00,
2013-05-18 03:47:00,50.5,41.2,29.81,NNW,337,3.0,6.0,70,0.00,,,0.00,meteohub,2013-05-18 02:47:00,
2013-05-18 03:52:00,50.5,41.2,29.78,NNW,337,4.0,6.0,70,0.00,,,0.00,meteohub,2013-05-18 02:52:00,
2013-05-18 03:57:00,50.5,41.2,29.78,NNW,337,4.0,6.0,70,0.00,,,0.00,meteohub,2013-05-18 02:57:00,
2013-05-18 04:02:00,50.5,41.2,29.78,NNW,337,4.0,6.0,70,0.00,,,0.00,meteohub,2013-05-18 03:02:00,
2013-05-18 04:07:00,50.5,41.2,29.78,NNW,337,6.0,6.0,70,0.00,,,0.00,meteohub,2013-05-18 03:07:00,
2013-05-18 04:12:00,50.5,41.2,29.78,North,0,4.0,8.0,70,0.00,,,0.00,meteohub,2013-05-18 03:12:00,
2013-05-18 04:17:00,50.5,41.2,29.78,North,0,5.0,8.0,70,0.00,,,0.00,meteohub,2013-05-18 03:17:00,
2013-05-18 04:22:00,50.5,41.5,29.78,NNW,337,8.0,8.0,71,0.00,,,0.00,meteohub,2013-05-18 03:22:00,
2013-05-18 04:27:00,50.5,41.9,29.78,North,0,6.0,8.0,72,0.00,,,0.00,meteohub,2013-05-18 03:27:00,
2013-05-18 04:32:00,50.5,41.9,29.78,North,0,5.0,8.0,72,0.00,,,0.00,meteohub,2013-05-18 03:32:00,
2013-05-18 04:38:00,50.5,41.9,29.78,North,0,3.0,10.0,72,0.00,,,0.00,meteohub,2013-05-18 03:38:00,
2013-05-18 04:43:00,50.5,41.9,29.78,North,0,5.0,10.0,72,0.00,,,0.00,meteohub,2013-05-18 03:43:00,
2013-05-18 04:48:00,50.5,41.9,29.78,North,0,4.0,10.0,72,0.00,,,0.00,meteohub,2013-05-18 03:48:00,
2013-05-18 04:53:00,50.7,42.1,29.78,North,0,6.0,8.0,72,0.00,,,0.00,meteohub,2013-05-18 03:53:00,
2013-05-18 04:58:00,50.7,42.1,29.78,North,0,4.0,8.0,72,0.00,,,0.00,meteohub,2013-05-18 03:58:00,
2013-05-18 05:01:00,50.7,42.1,29.78,North,0,4.0,8.0,72,0.00,,,0.00,meteohub,2013-05-18 04:01:00,
2013-05-18 05:02:00,50.7,42.1,29.78,NNW,337,3.0,8.0,72,0.00,,,0.00,meteohub,2013-05-18 04:02:00,
2013-05-18 05:04:00,50.7,42.1,29.78,NNW,337,2.0,8.0,72,0.00,,,0.00,meteohub,2013-05-18 04:04:00,
2013-05-18 05:09:00,50.7,42.1,29.78,NNW,337,3.0,8.0,72,0.00,,,0.00,meteohub,2013-05-18 04:09:00,
2013-05-18 05:14:00,50.7,42.1,29.78,North,0,6.0,6.0,72,0.00,,,0.00,meteohub,2013-05-18 04:14:00,
2013-05-18 05:19:00,50.7,42.1,29.78,North,0,4.0,6.0,72,0.00,,,0.00,meteohub,2013-05-18 04:19:00,
2013-05-18 05:24:00,50.7,42.4,29.78,NNW,337,3.0,7.0,73,0.00,,,0.00,meteohub,2013-05-18 04:24:00,
2013-05-18 05:29:00,50.9,42.6,29.78,NNW,337,6.0,7.0,73,0.00,,,0.00,meteohub,2013-05-18 04:29:00,
2013-05-18 05:35:00,50.9,42.6,29.78,NNW,337,4.0,7.0,73,0.00,,,0.00,meteohub,2013-05-18 04:35:00,
2013-05-18 05:40:00,50.9,43.0,29.78,North,0,6.0,8.0,74,0.00,,,0.00,meteohub,2013-05-18 04:40:00,
2013-05-18 05:45:00,51.1,43.2,29.78,North,0,4.0,8.0,74,0.00,,,0.00,meteohub,2013-05-18 04:45:00,
2013-05-18 05:50:00,51.1,43.5,29.78,NE,45,2.0,6.0,75,0.00,,,0.00,meteohub,2013-05-18 04:50:00,
2013-05-18 05:55:00,51.3,43.9,29.78,North,0,9.0,9.0,76,0.00,,,0.00,meteohub,2013-05-18 04:55:00,
2013-05-18 06:00:00,51.4,44.4,29.78,North,0,9.0,10.0,77,0.00,,,0.00,meteohub,2013-05-18 05:00:00,
2013-05-18 06:05:00,51.6,45.3,29.78,NNE,22,4.0,10.0,79,0.00,,,0.00,meteohub,2013-05-18 05:05:00,
2013-05-18 06:10:00,51.8,45.9,29.78,ENE,67,3.0,10.0,80,0.00,,,0.00,meteohub,2013-05-18 05:10:00,
2013-05-18 06:15:00,51.8,45.9,29.78,NNE,22,2.0,9.0,80,0.00,,,0.00,meteohub,2013-05-18 05:15:00,
2013-05-18 06:20:00,52.0,45.7,29.78,ENE,67,4.0,9.0,79,0.00,,,0.00,meteohub,2013-05-18 05:20:00,
2013-05-18 06:25:00,52.0,45.7,29.78,East,90,3.0,6.0,79,0.00,,,0.00,meteohub,2013-05-18 05:25:00,
2013-05-18 06:30:00,52.2,45.9,29.78,East,90,2.0,5.0,79,0.00,,,0.00,meteohub,2013-05-18 05:30:00,
2013-05-18 06:36:00,52.2,45.9,29.78,ESE,112,3.0,5.0,79,0.00,,,0.00,meteohub,2013-05-18 05:36:00,
2013-05-18 06:41:00,52.2,45.9,29.78,East,90,3.0,5.0,79,0.00,,,0.00,meteohub,2013-05-18 05:41:00,
2013-05-18 06:46:00,52.3,46.0,29.78,ENE,67,4.0,5.0,79,0.00,,,0.00,meteohub,2013-05-18 05:46:00,
2013-05-18 06:51:00,52.3,46.8,29.78,NNE,22,5.0,6.0,81,0.00,,,0.00,meteohub,2013-05-18 05:51:00,
2013-05-18 06:56:00,52.5,46.6,29.78,NE,45,6.0,6.0,80,0.00,,,0.00,meteohub,2013-05-18 05:56:00,
2013-05-18 07:01:00,52.5,46.9,29.78,NE,45,6.0,8.0,81,0.00,,,0.00,meteohub,2013-05-18 06:01:00,
2013-05-18 07:06:00,52.7,47.3,29.78,East,90,4.0,8.0,82,0.00,,,0.00,meteohub,2013-05-18 06:06:00,
2013-05-18 07:11:00,52.7,47.1,29.78,NNE,22,5.0,9.0,81,0.00,,,0.00,meteohub,2013-05-18 06:11:00,
2013-05-18 07:16:00,52.7,47.1,29.78,NW,315,6.0,10.0,81,0.00,,,0.00,meteohub,2013-05-18 06:16:00,
2013-05-18 07:21:00,52.7,47.3,29.78,NE,45,6.0,10.0,82,0.00,,,0.00,meteohub,2013-05-18 06:21:00,
2013-05-18 07:26:00,52.7,47.3,29.78,NE,45,5.0,10.0,82,0.00,,,0.00,meteohub,2013-05-18 06:26:00,
2013-05-18 07:32:00,52.7,47.3,29.78,NNE,22,4.0,10.0,82,0.00,,,0.00,meteohub,2013-05-18 06:32:00,
2013-05-18 07:37:00,52.7,47.7,29.78,NE,45,6.0,10.0,83,0.00,,,0.00,meteohub,2013-05-18 06:37:00,
2013-05-18 07:42:00,52.7,47.7,29.78,NE,45,8.0,10.0,83,0.00,,,0.00,meteohub,2013-05-18 06:42:00,
2013-05-18 07:47:00,52.7,47.7,29.78,NE,45,4.0,8.0,83,0.00,,,0.00,meteohub,2013-05-18 06:47:00,
2013-05-18 07:52:00,52.9,47.8,29.78,North,0,5.0,10.0,83,0.00,,,0.00,meteohub,2013-05-18 06:52:00,
2013-05-18 07:57:00,52.9,48.2,29.78,NE,45,3.0,10.0,84,0.00,,,0.00,meteohub,2013-05-18 06:57:00,
2013-05-18 08:02:00,53.1,48.4,29.78,NE,45,10.0,10.0,84,0.00,,,0.00,meteohub,2013-05-18 07:02:00,
2013-05-18 08:07:00,53.1,48.7,29.78,NNE,22,8.0,10.0,85,0.00,,,0.00,meteohub,2013-05-18 07:07:00,
2013-05-18 08:12:00,53.2,48.9,29.78,North,0,5.0,10.0,85,0.00,,,0.00,meteohub,2013-05-18 07:12:00,
2013-05-18 08:17:00,53.4,49.1,29.78,ENE,67,4.0,10.0,85,0.00,,,0.00,meteohub,2013-05-18 07:17:00,
2013-05-18 08:22:00,53.6,49.3,29.78,NNE,22,10.0,10.0,85,0.00,,,0.00,meteohub,2013-05-18 07:22:00,
2013-05-18 08:27:00,53.6,49.3,29.78,North,0,6.0,10.0,85,0.00,,,0.00,meteohub,2013-05-18 07:27:00,
2013-05-18 08:32:00,53.8,49.1,29.78,NNW,337,3.0,10.0,84,0.00,,,0.00,meteohub,2013-05-18 07:32:00,
2013-05-18 08:37:00,53.6,48.9,29.78,North,0,3.0,10.0,84,0.00,,,0.00,meteohub,2013-05-18 07:37:00,
2013-05-18 08:42:00,53.6,48.9,29.78,ENE,67,4.0,6.0,84,0.00,,,0.00,meteohub,2013-05-18 07:42:00,
2013-05-18 08:47:00,53.6,48.6,29.78,NE,45,3.0,6.0,83,0.00,,,0.00,meteohub,2013-05-18 07:47:00,
2013-05-18 08:52:00,53.6,48.6,29.78,NE,45,0.0,4.0,83,0.00,,,0.00,meteohub,2013-05-18 07:52:00,
2013-05-18 08:57:00,53.8,48.7,29.78,NE,45,3.0,4.0,83,0.00,,,0.00,meteohub,2013-05-18 07:57:00,
2013-05-18 09:02:00,53.8,48.7,29.78,NNE,22,2.0,4.0,83,0.00,,,0.00,meteohub,2013-05-18 08:02:00,
2013-05-18 09:07:00,53.8,49.1,29.78,ENE,67,2.0,4.0,84,0.00,,,0.00,meteohub,2013-05-18 08:07:00,
2013-05-18 09:12:00,54.0,49.3,29.78,NE,45,0.0,4.0,84,0.00,,,0.00,meteohub,2013-05-18 08:12:00,
2013-05-18 09:17:00,54.1,49.5,29.78,NE,45,3.0,4.0,84,0.00,,,0.00,meteohub,2013-05-18 08:17:00,
2013-05-18 09:22:00,54.1,49.5,29.75,ENE,67,3.0,4.0,84,0.00,,,0.00,meteohub,2013-05-18 08:22:00,
2013-05-18 09:27:00,54.3,49.6,29.75,North,0,0.0,4.0,84,0.00,,,0.00,meteohub,2013-05-18 08:27:00,
2013-05-18 09:33:00,54.5,49.8,29.75,North,0,2.0,4.0,84,0.00,,,0.00,meteohub,2013-05-18 08:33:00,
2013-05-18 09:38:00,54.5,49.8,29.75,North,0,6.0,6.0,84,0.00,,,0.00,meteohub,2013-05-18 08:38:00,
2013-05-18 09:43:00,54.7,50.0,29.75,North,0,3.0,8.0,84,0.00,,,0.00,meteohub,2013-05-18 08:43:00,
2013-05-18 09:48:00,54.9,50.4,29.75,North,0,6.0,8.0,85,0.00,,,0.00,meteohub,2013-05-18 08:48:00,
2013-05-18 09:53:00,55.0,50.5,29.75,NE,45,8.0,9.0,85,0.00,,,0.00,meteohub,2013-05-18 08:53:00,
2013-05-18 09:58:00,55.4,50.9,29.75,NE,45,11.0,11.0,85,0.00,,,0.00,meteohub,2013-05-18 08:58:00,
2013-05-18 10:03:00,55.6,51.1,29.75,NE,45,6.0,11.0,85,0.00,,,0.00,meteohub,2013-05-18 09:03:00,
2013-05-18 10:08:00,55.8,51.3,29.75,NNE,22,6.0,12.0,85,0.00,,,0.00,meteohub,2013-05-18 09:08:00,
2013-05-18 10:13:00,55.9,51.4,29.75,NNE,22,6.0,12.0,85,0.00,,,0.00,meteohub,2013-05-18 09:13:00,
2013-05-18 10:18:00,56.1,51.6,29.75,NE,45,6.0,12.0,85,0.00,,,0.00,meteohub,2013-05-18 09:18:00,
2013-05-18 10:23:00,56.3,51.8,29.75,NNE,22,13.0,15.0,85,0.00,,,0.00,meteohub,2013-05-18 09:23:00,
2013-05-18 10:29:00,56.5,51.6,29.75,NNE,22,11.0,15.0,84,0.00,,,0.00,meteohub,2013-05-18 09:29:00,
2013-05-18 10:34:00,56.7,51.6,29.75,NE,45,11.0,16.0,83,0.00,,,0.00,meteohub,2013-05-18 09:34:00,
2013-05-18 10:39:00,56.7,51.6,29.75,NNE,22,5.0,16.0,83,0.00,,,0.00,meteohub,2013-05-18 09:39:00,
2013-05-18 10:44:00,56.7,51.6,29.75,North,0,8.0,16.0,83,0.00,,,0.00,meteohub,2013-05-18 09:44:00,
2013-05-18 10:49:00,56.7,51.3,29.75,NE,45,6.0,16.0,82,0.00,,,0.00,meteohub,2013-05-18 09:49:00,
2013-05-18 10:54:00,56.7,51.3,29.75,NE,45,8.0,13.0,82,0.00,,,0.00,meteohub,2013-05-18 09:54:00,
2013-05-18 10:59:00,56.7,51.3,29.75,ENE,67,6.0,13.0,82,0.00,,,0.00,meteohub,2013-05-18 09:59:00,
2013-05-18 11:04:00,56.7,51.6,29.75,NNE,22,10.0,11.0,83,0.00,,,0.00,meteohub,2013-05-18 10:04:00,
2013-05-18 11:09:00,56.7,51.6,29.75,NNE,22,12.0,12.0,83,0.00,,,0.00,meteohub,2013-05-18 10:09:00,
2013-05-18 11:14:00,56.7,51.8,29.75,NNE,22,9.0,13.0,84,0.00,,,0.00,meteohub,2013-05-18 10:14:00,
2013-05-18 11:19:00,56.7,51.8,29.72,NE,45,11.0,17.0,84,0.00,,,0.00,meteohub,2013-05-18 10:19:00,
2013-05-18 11:25:00,56.5,52.0,29.72,NNE,22,4.0,18.0,85,0.00,,,0.00,meteohub,2013-05-18 10:25:00,
2013-05-18 11:30:00,56.5,52.0,29.72,ENE,67,8.0,18.0,85,0.00,,,0.00,meteohub,2013-05-18 10:30:00,
2013-05-18 11:35:00,56.3,52.5,29.72,NNW,337,6.0,17.0,87,0.00,,,0.00,meteohub,2013-05-18 10:35:00,
2013-05-18 11:40:00,55.9,52.5,29.72,NE,45,9.0,17.0,88,0.01,,,0.01,meteohub,2013-05-18 10:40:00,
2013-05-18 11:45:00,55.6,52.7,29.72,NNE,22,10.0,17.0,90,0.03,,,0.03,meteohub,2013-05-18 10:45:00,
2013-05-18 11:50:00,55.4,52.9,29.72,NNE,22,13.0,18.0,91,0.03,,,0.03,meteohub,2013-05-18 10:50:00,
2013-05-18 11:55:00,55.2,52.9,29.72,ENE,67,15.0,20.0,92,0.03,,,0.03,meteohub,2013-05-18 10:55:00,
2013-05-18 12:00:00,55.2,53.2,29.72,NNE,22,15.0,22.0,93,0.03,,,0.03,meteohub,2013-05-18 11:00:00,
2013-05-18 12:05:00,55.2,53.2,29.72,ENE,67,15.0,22.0,93,0.03,,,0.03,meteohub,2013-05-18 11:05:00,
2013-05-18 12:10:00,55.2,53.2,29.72,ENE,67,14.0,32.0,93,0.03,,,0.03,meteohub,2013-05-18 11:10:00,
2013-05-18 12:15:00,55.2,53.6,29.72,NE,45,12.0,32.0,94,0.04,,,0.03,meteohub,2013-05-18 11:15:00,
2013-05-18 12:20:00,55.2,53.6,29.72,East,90,13.0,32.0,94,0.04,,,0.04,meteohub,2013-05-18 11:20:00,
2013-05-18 12:26:00,55.2,53.6,29.72,North,0,18.0,30.0,94,0.04,,,0.04,meteohub,2013-05-18 11:26:00,
2013-05-18 12:31:00,55.0,53.6,29.72,NE,45,23.0,30.0,95,0.04,,,0.04,meteohub,2013-05-18 11:31:00,
2013-05-18 12:36:00,55.0,53.6,29.72,NE,45,13.0,26.0,95,0.04,,,0.05,meteohub,2013-05-18 11:36:00,
2013-05-18 12:41:00,54.9,53.4,29.72,NNE,22,15.0,27.0,95,0.04,,,0.05,meteohub,2013-05-18 11:41:00,
2013-05-18 12:46:00,54.9,53.4,29.72,ENE,67,15.0,28.0,95,0.03,,,0.05,meteohub,2013-05-18 11:46:00,
2013-05-18 12:52:00,54.5,53.1,29.72,NE,45,15.0,28.0,95,0.05,,,0.08,meteohub,2013-05-18 11:52:00,
2013-05-18 12:57:00,54.5,53.1,29.72,NNW,337,14.0,28.0,95,0.06,,,0.09,meteohub,2013-05-18 11:57:00,
2013-05-18 13:02:00,54.5,53.4,29.72,ENE,67,17.0,26.0,96,0.07,,,0.10,meteohub,2013-05-18 12:02:00,
2013-05-18 13:07:00,54.7,53.8,29.72,NE,45,10.0,28.0,97,0.07,,,0.10,meteohub,2013-05-18 12:07:00,
2013-05-18 13:12:00,54.7,53.8,29.72,NE,45,9.0,28.0,97,0.07,,,0.10,meteohub,2013-05-18 12:12:00,
2013-05-18 13:17:00,54.7,53.8,29.72,East,90,13.0,28.0,97,0.07,,,0.10,meteohub,2013-05-18 12:17:00,
2013-05-18 13:22:00,54.7,53.8,29.72,ENE,67,9.0,26.0,97,0.07,,,0.10,meteohub,2013-05-18 12:22:00,
2013-05-18 13:27:00,54.9,54.0,29.72,NE,45,20.0,26.0,97,0.06,,,0.10,meteohub,2013-05-18 12:27:00,
2013-05-18 13:32:00,54.9,54.0,29.72,ENE,67,18.0,26.0,97,0.07,,,0.11,meteohub,2013-05-18 12:32:00,
2013-05-18 13:37:00,54.9,54.0,29.72,ENE,67,13.0,26.0,97,0.06,,,0.11,meteohub,2013-05-18 12:37:00,
2013-05-18 13:42:00,54.9,54.0,29.72,North,0,12.0,26.0,97,0.06,,,0.11,meteohub,2013-05-18 12:42:00,
2013-05-18 13:48:00,54.7,53.8,29.72,ENE,67,8.0,23.0,97,0.06,,,0.12,meteohub,2013-05-18 12:48:00,
2013-05-18 13:53:00,54.9,54.0,29.72,East,90,11.0,24.0,97,0.04,,,0.12,meteohub,2013-05-18 12:53:00,
2013-05-18 13:58:00,54.7,53.8,29.72,NE,45,12.0,24.0,97,0.02,,,0.12,meteohub,2013-05-18 12:58:00,
2013-05-18 14:03:00,54.7,53.8,29.72,NE,45,14.0,24.0,97,0.03,,,0.13,meteohub,2013-05-18 13:03:00,
2013-05-18 14:08:00,54.5,54.0,29.75,NE,45,10.0,26.0,98,0.04,,,0.14,meteohub,2013-05-18 13:08:00,
2013-05-18 14:13:00,54.5,54.0,29.75,NE,45,13.0,26.0,98,0.04,,,0.15,meteohub,2013-05-18 13:13:00,
2013-05-18 14:18:00,54.5,54.0,29.72,NNE,22,15.0,26.0,98,0.04,,,0.15,meteohub,2013-05-18 13:18:00,
2013-05-18 14:23:00,54.5,54.0,29.72,East,90,15.0,26.0,98,0.04,,,0.15,meteohub,2013-05-18 13:23:00,
2013-05-18 14:28:00,54.5,54.0,29.72,ENE,67,9.0,27.0,98,0.04,,,0.15,meteohub,2013-05-18 13:28:00,
2013-05-18 14:33:00,54.5,54.0,29.72,NE,45,15.0,27.0,98,0.04,,,0.15,meteohub,2013-05-18 13:33:00,
2013-05-18 14:38:00,54.7,54.1,29.72,NE,45,15.0,27.0,98,0.04,,,0.15,meteohub,2013-05-18 13:38:00,
2013-05-18 14:43:00,54.7,54.1,29.72,ENE,67,17.0,26.0,98,0.03,,,0.15,meteohub,2013-05-18 13:43:00,
2013-05-18 14:49:00,54.7,54.1,29.75,ENE,67,9.0,26.0,98,0.03,,,0.15,meteohub,2013-05-18 13:49:00,
2013-05-18 14:54:00,54.7,54.1,29.75,ENE,67,15.0,23.0,98,0.03,,,0.15,meteohub,2013-05-18 13:54:00,
2013-05-18 14:59:00,54.7,54.1,29.75,ENE,67,11.0,24.0,98,0.03,,,0.15,meteohub,2013-05-18 13:59:00,
2013-05-18 15:04:00,54.7,54.1,29.72,NE,45,18.0,24.0,98,0.01,,,0.15,meteohub,2013-05-18 14:04:00,
2013-05-18 15:09:00,54.7,53.8,29.72,NNE,22,11.0,25.0,97,0.00,,,0.15,meteohub,2013-05-18 14:09:00,
2013-05-18 15:14:00,54.5,53.6,29.72,NE,45,13.0,25.0,97,0.00,,,0.15,meteohub,2013-05-18 14:14:00,
2013-05-18 15:19:00,54.5,53.6,29.72,NE,45,10.0,25.0,97,0.00,,,0.15,meteohub,2013-05-18 14:19:00,
2013-05-18 15:24:00,54.5,53.6,29.72,NE,45,18.0,22.0,97,0.00,,,0.15,meteohub,2013-05-18 14:24:00,
2013-05-18 15:29:00,54.3,53.4,29.72,ENE,67,12.0,20.0,97,0.00,,,0.15,meteohub,2013-05-18 14:29:00,
2013-05-18 15:34:00,54.3,53.4,29.72,ENE,67,9.0,26.0,97,0.00,,,0.15,meteohub,2013-05-18 14:34:00,
2013-05-18 15:39:00,54.3,53.4,29.72,NE,45,13.0,26.0,97,0.00,,,0.15,meteohub,2013-05-18 14:39:00,
2013-05-18 15:44:00,54.3,53.4,29.72,NNE,22,10.0,26.0,97,0.00,,,0.15,meteohub,2013-05-18 14:44:00,
2013-05-18 15:50:00,54.3,53.4,29.72,ENE,67,10.0,17.0,97,0.00,,,0.15,meteohub,2013-05-18 14:50:00,
2013-05-18 15:55:00,54.1,53.2,29.72,NE,45,9.0,19.0,97,0.00,,,0.15,meteohub,2013-05-18 14:55:00,
2013-05-18 16:00:00,54.1,53.2,29.72,ENE,67,10.0,19.0,97,0.00,,,0.15,meteohub,2013-05-18 15:00:00,
2013-05-18 16:05:00,54.1,53.2,29.72,ENE,67,11.0,19.0,97,0.00,,,0.15,meteohub,2013-05-18 15:05:00,
2013-05-18 16:10:00,54.3,53.4,29.72,ENE,67,11.0,16.0,97,0.00,,,0.15,meteohub,2013-05-18 15:10:00,
2013-05-18 16:15:00,54.3,53.4,29.72,ENE,67,9.0,16.0,97,0.00,,,0.15,meteohub,2013-05-18 15:15:00,
2013-05-18 16:20:00,54.3,53.8,29.72,North,0,10.0,16.0,98,0.00,,,0.15,meteohub,2013-05-18 15:20:00,
2013-05-18 16:25:00,54.5,54.0,29.72,East,90,6.0,16.0,98,0.00,,,0.15,meteohub,2013-05-18 15:25:00,
2013-05-18 16:30:00,54.5,54.0,29.72,NE,45,5.0,16.0,98,0.00,,,0.15,meteohub,2013-05-18 15:30:00,
2013-05-18 16:35:00,54.5,54.0,29.72,ENE,67,9.0,15.0,98,0.00,,,0.15,meteohub,2013-05-18 15:35:00,
2013-05-18 16:40:00,54.5,54.0,29.72,ENE,67,11.0,14.0,98,0.00,,,0.15,meteohub,2013-05-18 15:40:00,
2013-05-18 16:46:00,54.5,54.0,29.72,NNE,22,13.0,18.0,98,0.00,,,0.15,meteohub,2013-05-18 15:46:00,
2013-05-18 16:51:00,54.5,54.0,29.72,NE,45,13.0,19.0,98,0.00,,,0.15,meteohub,2013-05-18 15:51:00,
2013-05-18 16:56:00,54.5,53.6,29.72,NE,45,18.0,21.0,97,0.00,,,0.15,meteohub,2013-05-18 15:56:00,
2013-05-18 17:01:00,54.7,53.8,29.72,ENE,67,17.0,24.0,97,0.00,,,0.15,meteohub,2013-05-18 16:01:00,
2013-05-18 17:06:00,54.7,53.8,29.72,ENE,67,23.0,24.0,97,0.00,,,0.15,meteohub,2013-05-18 16:06:00,
2013-05-18 17:11:00,54.9,54.0,29.72,NE,45,12.0,24.0,97,0.00,,,0.15,meteohub,2013-05-18 16:11:00,
2013-05-18 17:16:00,54.9,54.0,29.72,NE,45,22.0,24.0,97,0.00,,,0.15,meteohub,2013-05-18 16:16:00,
2013-05-18 17:21:00,55.0,54.1,29.72,NNE,22,17.0,25.0,97,0.00,,,0.15,meteohub,2013-05-18 16:21:00,
2013-05-18 17:26:00,54.9,54.0,29.72,ENE,67,26.0,26.0,97,0.00,,,0.15,meteohub,2013-05-18 16:26:00,
2013-05-18 17:31:00,54.9,53.8,29.72,ENE,67,15.0,26.0,96,0.00,,,0.15,meteohub,2013-05-18 16:31:00,
2013-05-18 17:36:00,54.9,53.8,29.72,East,90,13.0,26.0,96,0.00,,,0.15,meteohub,2013-05-18 16:36:00,
2013-05-18 17:41:00,54.7,53.6,29.72,ENE,67,14.0,26.0,96,0.00,,,0.15,meteohub,2013-05-18 16:41:00,
2013-05-18 17:47:00,54.5,53.4,29.72,ENE,67,17.0,23.0,96,0.00,,,0.15,meteohub,2013-05-18 16:47:00,
2013-05-18 17:52:00,54.5,53.4,29.72,East,90,10.0,23.0,96,0.00,,,0.15,meteohub,2013-05-18 16:52:00,
2013-05-18 17:57:00,54.5,53.4,29.72,ENE,67,15.0,22.0,96,0.00,,,0.15,meteohub,2013-05-18 16:57:00,
2013-05-18 18:02:00,54.5,53.4,29.72,East,90,12.0,23.0,96,0.00,,,0.15,meteohub,2013-05-18 17:02:00,
2013-05-18 18:07:00,54.3,53.2,29.72,NE,45,13.0,26.0,96,0.00,,,0.15,meteohub,2013-05-18 17:07:00,
2013-05-18 18:12:00,54.3,53.2,29.72,ENE,67,16.0,26.0,96,0.00,,,0.15,meteohub,2013-05-18 17:12:00,
2013-05-18 18:17:00,54.1,53.1,29.72,ENE,67,12.0,26.0,96,0.00,,,0.15,meteohub,2013-05-18 17:17:00,
2013-05-18 18:22:00,54.0,52.9,29.75,NE,45,11.0,23.0,96,0.00,,,0.15,meteohub,2013-05-18 17:22:00,
2013-05-18 18:27:00,53.8,52.7,29.75,East,90,16.0,23.0,96,0.00,,,0.15,meteohub,2013-05-18 17:27:00,
2013-05-18 18:32:00,53.6,52.5,29.75,East,90,9.0,23.0,96,0.00,,,0.15,meteohub,2013-05-18 17:32:00,
2013-05-18 18:37:00,53.2,52.2,29.75,East,90,12.0,23.0,96,0.00,,,0.15,meteohub,2013-05-18 17:37:00,
2013-05-18 18:42:00,53.2,52.2,29.75,East,90,10.0,24.0,96,0.00,,,0.15,meteohub,2013-05-18 17:42:00,
2013-05-18 18:47:00,53.1,52.0,29.75,ENE,67,10.0,24.0,96,0.00,,,0.15,meteohub,2013-05-18 17:47:00,
2013-05-18 18:52:00,52.9,51.8,29.75,NE,45,8.0,24.0,96,0.00,,,0.15,meteohub,2013-05-18 17:52:00,
2013-05-18 18:57:00,52.7,51.6,29.75,East,90,13.0,23.0,96,0.00,,,0.15,meteohub,2013-05-18 17:57:00,
2013-05-18 19:02:00,52.5,51.6,29.75,East,90,15.0,22.0,97,0.00,,,0.15,meteohub,2013-05-18 18:02:00,
2013-05-18 19:07:00,52.5,51.6,29.75,ESE,112,21.0,22.0,97,0.00,,,0.15,meteohub,2013-05-18 18:07:00,
2013-05-18 19:12:00,52.5,51.6,29.75,ENE,67,24.0,26.0,97,0.00,,,0.15,meteohub,2013-05-18 18:12:00,
2013-05-18 19:17:00,52.5,51.6,29.75,East,90,17.0,26.0,97,0.00,,,0.15,meteohub,2013-05-18 18:17:00,
2013-05-18 19:22:00,52.5,52.0,29.75,ENE,67,11.0,26.0,98,0.00,,,0.15,meteohub,2013-05-18 18:22:00,
2013-05-18 19:27:00,52.5,52.0,29.75,NE,45,21.0,24.0,98,0.00,,,0.15,meteohub,2013-05-18 18:27:00,
2013-05-18 19:32:00,52.5,52.0,29.75,ENE,67,12.0,26.0,98,0.00,,,0.15,meteohub,2013-05-18 18:32:00,
2013-05-18 19:37:00,52.5,52.0,29.75,ENE,67,18.0,26.0,98,0.00,,,0.15,meteohub,2013-05-18 18:37:00,
2013-05-18 19:42:00,52.5,52.0,29.75,NE,45,10.0,26.0,98,0.00,,,0.15,meteohub,2013-05-18 18:42:00,
2013-05-18 19:47:00,52.3,51.8,29.75,East,90,15.0,26.0,98,0.00,,,0.15,meteohub,2013-05-18 18:47:00,
2013-05-18 19:52:00,52.3,51.8,29.75,NNE,22,11.0,26.0,98,0.03,,,0.17,meteohub,2013-05-18 18:52:00,
2013-05-18 19:57:00,52.3,51.8,29.75,East,90,12.0,26.0,98,0.04,,,0.18,meteohub,2013-05-18 18:57:00,
2013-05-18 20:02:00,52.2,51.6,29.75,NE,45,14.0,24.0,98,0.03,,,0.18,meteohub,2013-05-18 19:02:00,
2013-05-18 20:07:00,52.2,51.6,29.75,East,90,17.0,23.0,98,0.03,,,0.18,meteohub,2013-05-18 19:07:00,
2013-05-18 20:12:00,52.2,51.6,29.75,NE,45,15.0,25.0,98,0.03,,,0.18,meteohub,2013-05-18 19:12:00,
2013-05-18 20:17:00,52.0,51.4,29.75,ENE,67,17.0,26.0,98,0.03,,,0.18,meteohub,2013-05-18 19:17:00,
2013-05-18 20:22:00,52.0,51.4,29.75,East,90,15.0,26.0,98,0.03,,,0.18,meteohub,2013-05-18 19:22:00,
2013-05-18 20:27:00,52.0,51.4,29.75,East,90,13.0,26.0,98,0.03,,,0.18,meteohub,2013-05-18 19:27:00,
2013-05-18 20:32:00,52.0,51.4,29.75,ENE,67,10.0,23.0,98,0.03,,,0.18,meteohub,2013-05-18 19:32:00,
2013-05-18 20:37:00,51.8,51.3,29.75,NE,45,11.0,23.0,98,0.04,,,0.19,meteohub,2013-05-18 19:37:00,
2013-05-18 20:42:00,51.8,51.3,29.75,ENE,67,12.0,22.0,98,0.06,,,0.21,meteohub,2013-05-18 19:42:00,
2013-05-18 20:47:00,51.8,51.3,29.75,East,90,14.0,21.0,98,0.09,,,0.24,meteohub,2013-05-18 19:47:00,
2013-05-18 20:52:00,51.8,51.3,29.78,East,90,11.0,21.0,98,0.08,,,0.26,meteohub,2013-05-18 19:52:00,
2013-05-18 20:58:00,51.6,51.1,29.78,NNE,22,11.0,21.0,98,0.10,,,0.28,meteohub,2013-05-18 19:58:00,
2013-05-18 21:03:00,51.6,51.1,29.78,ENE,67,12.0,21.0,98,0.12,,,0.30,meteohub,2013-05-18 20:03:00,
2013-05-18 21:08:00,51.6,51.1,29.78,ESE,112,11.0,18.0,98,0.15,,,0.33,meteohub,2013-05-18 20:08:00,
2013-05-18 21:13:00,51.6,51.1,29.78,NE,45,18.0,18.0,98,0.23,,,0.41,meteohub,2013-05-18 20:13:00,
2013-05-18 21:18:00,51.6,51.1,29.78,ENE,67,10.0,19.0,98,0.24,,,0.43,meteohub,2013-05-18 20:18:00,
2013-05-18 21:23:00,51.4,50.9,29.78,ENE,67,17.0,19.0,98,0.25,,,0.43,meteohub,2013-05-18 20:23:00,
2013-05-18 21:28:00,51.4,50.9,29.78,ENE,67,13.0,20.0,98,0.25,,,0.43,meteohub,2013-05-18 20:28:00,
2013-05-18 21:33:00,51.4,50.9,29.78,East,90,10.0,20.0,98,0.25,,,0.43,meteohub,2013-05-18 20:33:00,
2013-05-18 21:38:00,51.4,50.9,29.78,ENE,67,10.0,21.0,98,0.24,,,0.43,meteohub,2013-05-18 20:38:00,
2013-05-18 21:43:00,51.4,50.9,29.78,East,90,7.0,21.0,98,0.22,,,0.43,meteohub,2013-05-18 20:43:00,
2013-05-18 21:48:00,51.4,50.9,29.78,SE,135,11.0,21.0,98,0.19,,,0.43,meteohub,2013-05-18 20:48:00,
2013-05-18 21:54:00,51.4,50.9,29.78,ENE,67,4.0,19.0,98,0.16,,,0.43,meteohub,2013-05-18 20:54:00,
2013-05-18 21:59:00,51.3,50.7,29.78,ENE,67,13.0,19.0,98,0.16,,,0.44,meteohub,2013-05-18 20:59:00,
2013-05-18 22:04:00,51.3,50.7,29.78,East,90,11.0,18.0,98,0.15,,,0.46,meteohub,2013-05-18 21:04:00,
2013-05-18 22:09:00,51.3,50.7,29.78,East,90,11.0,18.0,98,0.13,,,0.48,meteohub,2013-05-18 21:09:00,
2013-05-18 22:14:00,51.3,50.7,29.78,East,90,9.0,17.0,98,0.07,,,0.48,meteohub,2013-05-18 21:14:00,
2013-05-18 22:19:00,51.3,50.7,29.78,ESE,112,6.0,17.0,98,0.06,,,0.48,meteohub,2013-05-18 21:19:00,
2013-05-18 22:24:00,51.3,50.7,29.78,East,90,12.0,15.0,98,0.05,,,0.48,meteohub,2013-05-18 21:24:00,
2013-05-18 22:29:00,51.3,50.7,29.78,East,90,8.0,13.0,98,0.05,,,0.48,meteohub,2013-05-18 21:29:00,
2013-05-18 22:34:00,51.3,50.7,29.78,East,90,6.0,13.0,98,0.05,,,0.48,meteohub,2013-05-18 21:34:00,
2013-05-18 22:39:00,51.3,50.7,29.78,East,90,6.0,13.0,98,0.05,,,0.48,meteohub,2013-05-18 21:39:00,
2013-05-18 22:44:00,51.1,50.5,29.78,East,90,6.0,11.0,98,0.05,,,0.48,meteohub,2013-05-18 21:44:00,
2013-05-18 22:49:00,51.1,50.5,29.78,East,90,5.0,11.0,98,0.05,,,0.48,meteohub,2013-05-18 21:49:00,
2013-05-18 22:55:00,51.1,50.5,29.78,East,90,6.0,10.0,98,0.06,,,0.48,meteohub,2013-05-18 21:55:00,
2013-05-18 23:00:00,51.1,50.5,29.78,ESE,112,6.0,13.0,98,0.03,,,0.50,meteohub,2013-05-18 22:00:00,
2013-05-18 23:05:00,51.1,50.5,29.81,East,90,8.0,13.0,98,0.02,,,0.50,meteohub,2013-05-18 22:05:00,
2013-05-18 23:10:00,51.1,50.5,29.81,East,90,10.0,11.0,98,0.06,,,0.54,meteohub,2013-05-18 22:10:00,
2013-05-18 23:15:00,51.6,51.1,29.81,ENE,67,4.0,12.0,98,0.09,,,0.57,meteohub,2013-05-18 22:15:00,
2013-05-18 23:20:00,51.1,50.5,29.81,East,90,4.0,12.0,98,0.10,,,0.58,meteohub,2013-05-18 22:20:00,
2013-05-18 23:25:00,50.9,50.4,29.81,East,90,6.0,12.0,98,0.10,,,0.58,meteohub,2013-05-18 22:25:00,
2013-05-18 23:30:00,50.9,50.4,29.81,ENE,67,4.0,9.0,98,0.11,,,0.59,meteohub,2013-05-18 22:30:00,
2013-05-18 23:35:00,50.9,50.4,29.81,East,90,5.0,9.0,98,0.11,,,0.59,meteohub,2013-05-18 22:35:00,
2013-05-18 23:40:00,50.9,50.4,29.81,East,90,3.0,9.0,98,0.13,,,0.60,meteohub,2013-05-18 22:40:00,
2013-05-18 23:45:00,50.9,50.4,29.81,East,90,4.0,7.0,98,0.15,,,0.63,meteohub,2013-05-18 22:45:00,
2013-05-18 23:51:00,50.9,50.4,29.81,NE,45,3.0,7.0,98,0.17,,,0.65,meteohub,2013-05-18 22:51:00,
2013-05-18 23:56:00,50.9,50.4,29.81,East,90,4.0,7.0,98,0.16,,,0.65,meteohub,2013-05-18 22:56:00,